User: anonymous   Login
Location: Home
(42.5358°N, 72.7383°W)
Time: 13:06:52
(UTC-05:00)
Language:

Transit 2A Rocket - Orbit

View from above orbital plane
View from above orbital plane
View from above satellite
View from above satellite

Ground track
Ground track

The orbit data is extracted from the following two-line orbital elements,

1    47U 60007C   21334.03006478  .00000029  00000-0  31231-4 0  9990
2    47  66.6640 176.2079 0234668 274.9194  82.5157 14.42197849211627
Epoch (UTC): 30 November 2021 00:43:17
Eccentricity: 0.0234668
inclination: 66.6640°
perigee height: 584 km
apogee height: 918 km
right ascension of ascending node: 176.2079°
argument of perigee: 274.9194°
revolutions per day: 14.42197849
mean anomaly at epoch: 82.5157°
orbit number at epoch: 21162

The dashed part of the orbit path shows where the satellite is in the earth's shadow,  

DLR